www.pogodaiklimat.ru

Погода и климат >> Архив погоды >> Венгрия >> Sopron


ПОГОДА в Sopron

  • Прогноз погоды в Sopron
  • Монитор погоды в Sopron
  • Климат города

АРХИВ ПОГОДЫ в Sopron

Время (UTC), дата Ветер
(напр.,м/с)
 
Видим.   Явления Облачность Т
(С)
Тd
(С)
f
(%)
Тe
(С)
Тes
(С)
Комфортность P
(гПа)
Po
(гПа)
Тmin
(С)
Tmax
(С)
R
(мм)
R24
(мм)
S
(см)
22 8.12 ЮЗ 3 н/о н/о +7.9 -0.8 54 +6 +6 1011.8 997.3
23 8.12 В 1 н/о н/о +4.0 -1.2 69 +3 +3 1011.5 996.8
00 9.12 Ю 6 н/о н/о +7.2 -2.3 51 +3 +3 1009.7 995.2
01 9.12 Ю 8
{11}
н/о н/о +8.0 -2.6 47 +4 +4 1008.4 994.0
02 9.12 Ю 8
{11}
н/о н/о +7.9 -2.1 49 +4 +4 1007.2 992.8
03 9.12 Ю 7 н/о н/о +7.4 -1.8 52 +3 +3 1005.8 991.4
04 9.12 З 2
{12}
н/о н/о +7.4 -2.1 51 +6 +6 1005.7 991.3
05 9.12 ЮЗ 7
{11}
н/о н/о +7.9 -1.9 50 +4 +4 1004.0 989.6
06 9.12 ЮЗ 6 н/о н/о +6.7 -1.0 58 +3 +3 1003.5 989.1 +3.5
07 9.12 ЮВ 2
{11}
н/о н/о +6.0 -1.4 59 +4 +4 1003.3 988.8
08 9.12 Ю 2 н/о н/о +5.8 -0.7 63 +4 +4 1003.0 988.5
09 9.12 штиль 0 н/о н/о +5.5 +0.7 71 +5 +5 1004.0 989.5
10 9.12 ЮЗ 2
{7}
н/о н/о +9.5 +2.6 62 +8 +8 1003.6 989.3
11 9.12 Ю 2 н/о н/о +7.9 +1.3 63 +6 +6 1003.4 989.0
12 9.12 СЗ 1 н/о н/о +9.2 +2.1 61 +9 +9 1003.1 988.8
13 9.12 З 5
{14}
н/о н/о +11.0 +1.8 53 +9 +9 1002.7 988.5
14 9.12 З 3
{8}
н/о н/о +10.2 +1.6 55 +8 +8 1003.1 988.9
15 9.12 З 5 н/о н/о +10.0 +1.1 54 +7 +7 1003.3 989.0
16 9.12 Ю 3
{9}
н/о н/о +7.6 +0.8 62 +5 +5 1003.7 989.3
17 9.12 Ю 3 н/о н/о +7.0 +0.4 63 +4 +4 1004.0 989.6
18 9.12 З 2 н/о н/о +5.9 +0.2 67 +4 +4 1004.8 990.3 +11.2
19 9.12 З 2 н/о н/о +8.6 +0.8 58 +7 +7 1004.8 990.4
20 9.12 Ю 1 н/о н/о +6.0 +0.3 67 +5 +5 1005.2 990.7
21 9.12 ЮЗ 3 н/о н/о +8.0 +1.6 64 +6 +6 1005.6 991.2
22 9.12 ЮЗ 1 н/о н/о +7.7 +1.1 63 +7 +7 1006.1 991.7
23 9.12 З 2 н/о н/о +8.2 +1.1 61 +7 +7 1006.7 992.3
00 10.12 СВ 1 н/о н/о +4.6 +0.9 77 +3 +3 1007.7 993.1
01 10.12 СЗ 2 н/о н/о +5.2 +1.7 78 +3 +3 1008.3 993.7
02 10.12 СЗ 3 н/о н/о +7.0 +1.5 68 +4 +4 1009.0 994.5
03 10.12 СЗ 5 н/о н/о +7.6 +1.7 66 +4 +4 1008.9 994.4
04 10.12 З 3
{8}
н/о н/о +6.5 +1.6 71 +4 +4 1009.6 995.1
05 10.12 СЗ 6
{18}
н/о н/о +5.0 +2.5 84 -0 -0 1010.7 996.1
06 10.12 СЗ 5 н/о н/о +5.1 +2.1 81 +1 +1 1011.2 996.6 +4.1 0.6
07 10.12 СЗ 4
{9}
н/о н/о +5.9 +1.8 75 +2 +2 1011.9 997.3
08 10.12 З 5
{14}
н/о н/о +6.4 -0.1 63 +3 +3 1012.8 998.2
09 10.12 СЗ 5 н/о н/о +6.8 -0.2 61 +3 +3 1013.7 999.1
10 10.12 СЗ 6
{11}
н/о н/о +7.5 -0.7 56 +4 +4 1014.2 999.7
11 10.12 СЗ 7
{13}
н/о н/о +8.2 -0.5 54 +4 +4 1014.2 999.7
12 10.12 СЗ 8 н/о н/о +8.0 -0.5 55 +4 +4 1014.7 1000.2
13 10.12 З 5
{13}
н/о н/о +6.4 -0.1 63 +3 +3 1015.3 1000.7
14 10.12 З 5
{10}
н/о н/о +6.2 -0.5 62 +2 +2 1015.5 1000.9
15 10.12 З 4
{10}
н/о н/о +5.5 -1.2 62 +2 +2 1015.6 1000.9
16 10.12 З 5
{11}
н/о н/о +5.6 -2.2 57 +2 +2 1015.8 1001.1
17 10.12 З 3
{8}
н/о н/о +4.2 -2.0 64 +1 +1 1016.1 1001.4
18 10.12 СЗ 3
{7}
н/о н/о +3.8 -2.2 65 0 0 1016.8 1002.0 +9.0
19 10.12 СЗ 4
{8}
н/о н/о +4.0 -2.6 62 0 0 1016.8 1002.0
20 10.12 СЗ 3
{11}
н/о н/о +3.5 -2.2 66 0 0 1016.5 1001.7
21 10.12 СЗ 2 н/о н/о +1.9 -3.0 70 -1 -1 1016.7 1001.8
22 10.12 З 3 н/о н/о +2.7 -3.0 66 -1 -1 1016.2 1001.4
23 10.12 З 2 н/о н/о +1.5 -2.6 74 -2 -2 1016.2 1001.3
00 11.12 З 3 н/о н/о +1.2 -2.0 79 -3 -3 1016.4 1001.5
01 11.12 З 2 н/о н/о +1.2 -2.0 79 -2 -2 1016.7 1001.8
02 11.12 СЗ 2 н/о н/о -0.3 -2.4 86 -4 -4 1016.7 1001.7
03 11.12 З 4 н/о н/о +1.6 -3.1 71 -3 -3 1016.2 1001.3
04 11.12 З 5
{9}
н/о н/о +3.9 -2.7 62 -1 -1 1016.1 1001.3
05 11.12 З 4
{8}
н/о н/о +3.9 -2.3 64 -0 -0 1015.9 1001.1
06 11.12 З 4
{9}
н/о н/о +3.8 -1.6 68 -0 -0 1015.7 1000.9 -1.0
07 11.12 З 3 н/о н/о +3.8 -1.6 68 0 0 1015.8 1001.0
08 11.12 З 4
{7}
н/о н/о +4.2 -0.8 70 0 0 1015.9 1001.2
09 11.12 З 5
{9}
н/о н/о +4.6 -0.6 69 0 0 1016.0 1001.3
10 11.12 З 4 н/о н/о +5.2 -0.0 69 +1 +1 1016.1 1001.4
11 11.12 З 6
{12}
н/о н/о +5.2 -0.2 68 0 0 1016.0 1001.3
12 11.12 З 7 н/о н/о +5.1 -0.3 68 -0 -0 1015.6 1000.9
13 11.12 З 5
{11}
н/о н/о +5.6 -1.3 61 +2 +2 1015.7 1001.0
14 11.12 З 6
{13}
н/о н/о +6.6 -2.5 52 +3 +3 1015.7 1001.1
15 11.12 З 6
{10}
н/о н/о +5.9 -2.7 54 +2 +2 1016.0 1001.3
16 11.12 З 8
{15}
н/о н/о +4.4 -1.4 66 -1 -1 1016.3 1001.6
17 11.12 З 7
{14}
н/о н/о +4.4 -1.6 65 -1 -1 1016.6 1001.9
18 11.12 З 5
{12}
н/о н/о +4.5 -1.7 64 0 0 1016.8 1002.1 +7.0
19 11.12 З 5
{11}
н/о н/о +4.7 -1.5 64 0 0 1017.1 1002.4
20 11.12 З 5
{11}
н/о н/о +4.1 -0.7 71 -1 -1 1017.2 1002.4
21 11.12 З 4 н/о н/о +4.5 -1.1 67 +1 +1 1017.1 1002.4
22 11.12 З 4
{7}
н/о н/о +4.2 -1.0 69 0 0 1017.3 1002.5
23 11.12 СЗ 4
{10}
н/о н/о +3.6 -0.2 76 -1 -1 1017.4 1002.6
00 12.12 З 3 н/о н/о +3.3 +0.5 82 -1 -1 1017.5 1002.7
01 12.12 СЗ 3
{7}
н/о н/о +3.6 +0.3 79 -0 -0 1017.7 1002.9
02 12.12 С 2 н/о н/о +3.0 +1.2 88 -0 -0 1018.3 1003.5
03 12.12 С 3 н/о н/о +1.0 +0.7 98 -4 -4 1018.9 1003.9
04 12.12 СЗ 1 н/о н/о +0.4 +0.3 99 -2 -2 1018.9 1003.9
05 12.12 штиль 0 н/о н/о +0.6 +0.6 100 -1 -1 1018.9 1003.9
06 12.12 З 2 н/о н/о +0.8 +0.8 100 -3 -3 1019.0 1004.0 +0.3 3
07 12.12 З 1 н/о н/о +1.0 +1.0 100 -1 -1 1019.6 1004.6
08 12.12 СЗ 2 н/о н/о +1.9 +1.8 99 -2 -2 1020.1 1005.2
09 12.12 СЗ 3 н/о н/о +2.6 +2.3 98 -2 -2 1020.5 1005.6
10 12.12 СЗ 4 н/о н/о +2.3 +1.4 94 -3 -3 1021.0 1006.1
11 12.12 СЗ 3 н/о н/о +3.1 +2.1 93 -1 -1 1020.9 1006.0
12 12.12 СЗ 4
{9}
н/о н/о +3.5 +1.2 85 -1 -1 1020.7 1005.9 1
13 12.12 СЗ 3
{7}
н/о н/о +3.9 +1.3 83 0 0 1020.8 1006.0
14 12.12 СЗ 3 н/о н/о +3.7 +1.4 85 -0 -0 1021.0 1006.2
15 12.12 З 3 н/о н/о +2.5 +1.0 90 -2 -2 1021.3 1006.4
16 12.12 З 3 н/о н/о +2.0 +1.0 93 -2 -2 1021.5 1006.6
17 12.12 З 2
{7}
н/о н/о +1.2 +0.5 95 -2 -2 1021.7 1006.7
18 12.12 СЗ 2 н/о н/о +0.4 -0.0 97 -3 -3 1022.0 1007.0 +4.0 1
19 12.12 З 2 н/о н/о -0.2 -0.5 98 -4 -4 1022.3 1007.2
20 12.12 СЗ 1 н/о н/о -0.9 -1.0 99 -3 -3 1022.5 1007.4
21 12.12 З 1 н/о н/о -0.3 -0.4 99 -3 -3 1022.7 1007.6
22 12.12 З 2 н/о н/о +0.3 +0.2 99 -4 -4 1022.7 1007.7
23 12.12 З 1 н/о н/о -0.9 -1.2 98 -3 -3 1023.0 1007.9
00 13.12 СЗ 1 н/о н/о -0.7 -0.7 100 -3 -3 1022.9 1007.8
01 13.12 З 2 н/о н/о -1.5 -1.5 100 -6 -6 1023.1 1007.9
02 13.12 СЗ 1 н/о н/о -1.8 -1.9 99 -4 -4 1023.2 1008.0
03 13.12 З 1 н/о н/о -2.1 -2.2 99 -5 -5 1023.0 1007.8
04 13.12 З 1 н/о н/о -2.1 -2.2 99 -5 -5 1022.9 1007.7
05 13.12 С 2 н/о н/о -1.2 -1.3 99 -5 -5 1022.7 1007.6
06 13.12 СЗ 1 н/о н/о -1.7 -2.0 98 -4 -4 1022.9 1007.7 -2.4
07 13.12 С 1 н/о н/о -2.6 -2.7 99 -5 -5 1023.1 1007.9
08 13.12 ЮВ 1 н/о н/о -2.3 -2.3 100 -5 -5 1023.5 1008.3
09 13.12 штиль 0 н/о н/о -1.7 -1.8 99 -3 -3 1023.4 1008.2
10 13.12 ЮВ 1 н/о н/о -1.2 -1.3 99 -4 -4 1023.2 1008.1
11 13.12 В 1 н/о н/о -0.6 -0.7 99 -3 -3 1022.6 1007.5
12 13.12 В 1 н/о н/о -0.6 -1.0 97 -3 -3 1022.3 1007.2
13 13.12 штиль 0 н/о н/о -0.6 -1.6 93 -2 -2 1022.3 1007.2
14 13.12 В 1 н/о н/о -0.8 -1.4 96 -3 -3 1022.3 1007.2
15 13.12 В 1 н/о н/о -0.9 -1.3 97 -3 -3 1022.3 1007.2
16 13.12 В 1 н/о н/о -1.2 -1.6 97 -4 -4 1022.3 1007.2
17 13.12 штиль 0 н/о н/о -1.1 -1.5 97 -2 -2 1022.1 1007.0
18 13.12 штиль 0 н/о н/о -1.2 -1.5 98 -3 -3 1022.3 1007.2 -0.5
19 13.12 В 2 н/о н/о -1.5 -1.6 99 -6 -6 1022.5 1007.4
20 13.12 В 2 н/о н/о -1.6 -1.7 99 -6 -6 1023.0 1007.8
21 13.12 В 2 н/о н/о -1.6 -1.7 99 -6 -6 1023.4 1008.2
22 13.12 В 2 н/о н/о -1.8 -1.9 99 -6 -6 1023.5 1008.3
23 13.12 В 2 н/о н/о -2.0 -2.1 99 -6 -6 1023.2 1008.0
00 14.12 В 2 н/о н/о -2.1 -2.1 100 -6 -6 1023.2 1008.0
01 14.12 ЮВ 2 н/о н/о -2.2 -2.3 99 -6 -6 1023.3 1008.1
02 14.12 В 2 н/о н/о -2.4 -2.5 99 -7 -7 1023.2 1008.0
03 14.12 В 2 н/о н/о -2.4 -2.4 100 -7 -7 1023.1 1007.9
04 14.12 ЮВ 1 н/о н/о -2.8 -2.9 99 -5 -5 1023.2 1008.0
05 14.12 СВ 1 н/о н/о -2.9 -3.0 99 -5 -5 1023.3 1008.1
06 14.12 В 2 н/о н/о -3.0 -3.1 99 -7 -7 1023.6 1008.4 -3.0
07 14.12 штиль 0 н/о н/о -2.9 -3.0 99 -4 -4 1024.0 1008.8
08 14.12 штиль 0 н/о н/о -2.5 -2.6 99 -4 -4 1024.4 1009.2
09 14.12 В 1 н/о н/о -2.3 -2.4 99 -5 -5 1024.7 1009.5
10 14.12 штиль 0 н/о н/о -1.9 -2.0 99 -3 -3 1024.9 1009.7
11 14.12 СВ 1 н/о н/о -1.8 -1.8 100 -4 -4 1024.6 1009.4
12 14.12 С 1 н/о н/о -1.5 -1.6 99 -4 -4 1024.2 1009.0
13 14.12 С 1 н/о н/о -1.2 -1.6 97 -4 -4 1024.1 1008.9
14 14.12 С 1 н/о н/о -0.9 -1.6 95 -3 -3 1023.8 1008.7
15 14.12 СЗ 1 н/о н/о -0.7 -1.5 94 -3 -3 1024.0 1008.9
16 14.12 СЗ 1 н/о н/о -0.7 -1.4 95 -3 -3 1024.3 1009.2
17 14.12 СЗ 1 н/о н/о -0.9 -1.3 97 -3 -3 1024.4 1009.3
18 14.12 С 1 н/о н/о -1.0 -1.1 99 -3 -3 1024.5 1009.4 -0.7 0.6
19 14.12 СЗ 1 н/о н/о -1.2 -1.3 99 -4 -4 1024.6 1009.4
20 14.12 СЗ 1 н/о н/о -1.3 -1.4 99 -4 -4 1024.7 1009.5
21 14.12 З 1 н/о н/о -1.4 -1.5 99 -4 -4 1024.8 1009.6
22 14.12 СЗ 2 н/о н/о -1.6 -1.7 99 -6 -6 1024.6 1009.4
23 14.12 СЗ 2 н/о н/о -1.8 -1.9 99 -6 -6 1024.5 1009.3
00 15.12 СЗ 1 н/о н/о -1.7 -1.8 99 -4 -4 1024.2 1009.0 1
01 15.12 СЗ 2 н/о н/о -1.6 -1.7 99 -6 -6 1024.1 1008.9
02 15.12 СЗ 2 н/о н/о -1.4 -1.5 99 -6 -6 1024.2 1009.0
03 15.12 СЗ 2 н/о н/о -1.3 -1.4 99 -5 -5 1023.9 1008.7
04 15.12 СЗ 2 н/о н/о -1.3 -1.6 98 -5 -5 1023.9 1008.7
05 15.12 СЗ 2 н/о н/о -1.4 -1.7 98 -5 -5 1023.9 1008.7
06 15.12 СЗ 3 н/о н/о -1.4 -1.7 98 -7 -7 1023.8 1008.6 -1.9 2
07 15.12 СЗ 3 н/о н/о -1.4 -1.8 97 -7 -7 1024.0 1008.8
08 15.12 СЗ 3 н/о н/о -1.2 -1.6 97 -6 -6 1023.8 1008.7
09 15.12 СЗ 4 н/о н/о -0.9 -1.5 96 -7 -7 1024.0 1008.9
10 15.12 СЗ 4
{7}
н/о н/о -0.5 -1.2 95 -6 -6 1023.6 1008.5
11 15.12 СЗ 4
{9}
н/о н/о -0.3 -1.3 93 -6 -6 1023.1 1008.0
12 15.12 СЗ 4
{8}
н/о н/о -0.3 -1.6 91 -6 -6 1023.0 1007.9 0.7
13 15.12 СЗ 4
{8}
н/о н/о -0.4 -1.5 92 -6 -6 1022.7 1007.6
14 15.12 СЗ 5
{10}
н/о н/о -0.3 -1.4 92 -7 -7 1022.8 1007.7
15 15.12 СЗ 5 н/о н/о -0.7 -2.0 91 -7 -7 1023.0 1007.9
16 15.12 СЗ 5
{9}
н/о н/о -0.4 -2.0 89 -7 -7 1023.0 1007.9
17 15.12 СЗ 6
{10}
н/о н/о -0.5 -2.7 85 -7 -7 1023.1 1008.0
18 15.12 СЗ 5 н/о н/о -0.4 -3.3 81 -7 -7 1023.2 1008.1 0.0 0.7
19 15.12 СЗ 5
{10}
н/о н/о -0.4 -3.8 78 -6 -6 1023.0 1007.9
20 15.12 СЗ 5
{10}
н/о н/о -0.6 -3.6 80 -7 -7 1023.0 1007.9
21 15.12 СЗ 5 н/о н/о -0.4 -3.9 77 -6 -6 1022.7 1007.6
22 15.12 СЗ 4
{9}
н/о н/о -0.5 -4.4 75 -6 -6 1022.5 1007.4

 

Местоположение метеостанции Sopron (Венгрия): широта 47.68 долгота 16.60 высота над уровнем моря 239 м.

В архиве по умолчанию представлена погода в Sopron за последнюю неделю. Архивные данные за месяц целиком и за предыдущие месяцы, начиная с января 2011 года, Вы можете получить, выбрав интересующий диапазон дат из раскрывающегося списка и нажав кнопку "Ввод!".


*Определитесь, кто Вы:
робот инопланетянин человек

Внимание! Время в таблицах - всемирное. Для получения местного времени необходимо прибавить поправку, которая в Sopron равна 1 ч.

Смотрите также архив погоды в соседних городах и на ближайших метеорологических станциях:

Погода в Eisenstadt (Австрия) (20 км)
Погода в Lutzmannsburg (Австрия) (24 км)
Погода в Wiener Neustadt (Австрия) (33 км)
Погода в Andau (Австрия) (34 км)
Погода в Seibersdorf (Австрия) (34 км)
Погода в Krumbach I. D. Buckligen Welt (Австрия) (35 км)
Погода в Neusiedl (Австрия) (35 км)
Погода в Hohe Wand (Австрия) (45 км)
Погода в Szombathely (Венгрия) (46 км)
Погода в Gumpoldskirchen (Австрия) (46 км)

Пояснения к столбцам:

Ветер - указаны скорость ветра в м/с - средняя за 10 мин, порывы в срок и между сроками (в фигурных скобках) и направление, откуда дует ветер: С - северный, СВ - северо-восточный, В - восточный, ЮВ - юго-восточный, Ю - южный, ЮЗ - юго-западный, З - западный, СЗ - северо-западный.
Видимость - горизонтальная дальность видимости в метрах или километрах. При видимости от 1 до 10 км при отсутствии осадков обычно наблюдается дымка, при ухудшении видимости до 1 км и менее - туман. В сухую погоду видимость может ухудшаться дымом, пылью или мглою.
Явления - указаны атмосферные явления, наблюдавшиеся в срок или в последний час перед сроком; фигурными скобками обозначены явления, наблюдавшиеся между сроками (за 1-3 часа до срока); квадратными скобками обозначены град или гололедные отложения с указанием их диаметра в мм.
Облачность - указаны через наклонную черту общая и нижняя облачность в баллах и высота нижней границы облаков в метрах; квадратными скобками обозначены формы облаков: Ci - перистые, Cs - перисто-слоистые, Cc - перисто-кучевые, Ac - высококучевые, As - высокослоистые, Sc - слоисто-кучевые, Ns - слоисто-дождевые, Cu - кучевые, Cb - кучево-дождевые. Подробнее классификацию облаков см. в Атласе облаков (PDF).
T - Температура воздуха - температура, измеренная на высоте 2 м над землей.
Td - Температура точки росы - температура, при понижении до которой содержащийся в воздухе водяной пар достигнет насыщения.
f - Относительная влажность воздуха - влажноcть воздуха, измеренная на высоте 2 м над землей.
Te - Эффективная температура - температура, которую ощущает одетый по сезону человек в тени. Характеристика душности погоды. При расчете учитывается влияние влажности воздуха и скорости ветра на теплоощущения человека.
Tes - Эффективная температура на солнце - температура, которую ощущает человек, с поправкой на солнечный нагрев. Характеристика знойности погоды. Зависит от высоты солнца над горизонтом, облачности и скорости ветра. Ночью, в пасмурную погоду, а также при ветре 12 м/с и более поправка равна нулю.
P - Атмосферное давление - приведенное к уровню моря атмосферное давление.
Po - Атмосферное давление - измеренное на уровне метеостанции атмосферное давление.
Tmin - Минимальная температура - минимум температуры воздуха на высоте 2 м над землей.
Tmax - Максимальная температура - максимум температуры воздуха на высоте 2 м над землей.
R - Количество осадков - Количество выпавших осадков за период времени, мм. При наведении курсора мыши на число - период времени, за который выпало указанное количество осадков.
R24 - Количество осадков - Количество выпавших осадков за 24 часа, мм.
S - Снежный покров - Высота снежного покрова, см. При наведении курсора мыши на число - состояние снежного покрова и степень покрытия местности в баллах.